DMSP 5D-2 F13 DEB, 40610

Orbit data source: Space-Track

DMSP 5D-2 F13 DEB, 40610 is space debris in SSO originally from a launch on Fri, 24 Mar 1995 UTC launched from the Air Force Western Test Range (AFWTR). Debris objects in space refer to the collection of defunct objects orbiting the Earth. Examples of debris include non-operational satellites, rocket bodies, and fragments generated from explosions, collisions, or faulty payload assembly.

Loading next visibility...
Identifier
40610, 1995-015FH
Orbit
SSO
Country
Flag of USUS
Related business
Manufacturer
Unknown
Mission
Spacecraft
Bus & Motor
Unknown
Mass
Unknown
Launch date (UTC)
1995-03-24 (31 years ago)
Launch vehicle
Unknown
Launch site
Air Force Western Test Range (AFWTR)
Object type
Payload
Rocket body
Debris
Shape & HBR
Unknown shape, 0.1 m
Radar Cross Section
Medium (>0.1 m² and <1 m²)

Expand to show TLE details & history
Last TLE update: 3 days ago

TLE from 3 days ago
0 DMSP 5D-2 F13 DEB
1 40610U 95015FH  26254.57033804  .00002978  00000-0  91272-3 0  9990
2 40610  98.6873 296.9253 0026108 140.7219 219.5870 14.42268899591966
Epoch: 2026-09-11T13:41Z
TLE epoch observation values (Epoch: 2026-09-11T13:41:17.206Z)
Latitude
-0.00005°
Longitude
101.01182°
Altitude
768.324 km
Speed
7.462 km/s
True Right ascension
19h 47m 42s
True Declination
0° 00' 00"
Sunlit
Object was in full shadow at epoch
Visualization orbit readout
Latitude
Unknown
Longitude
Unknown
Altitude
Unknown
Speed
Unknown
Apparent Right ascension
Unknown
Apparent Declination
Unknown
Sunlit
N/A
Visualization observer readout
Local Sidereal Time
01:56:52
Azimuth
Unknown
Elevation
Unknown
Doppler factor
Unknown
Orbital elements
Apogee altitude
766.745 km
Perigee altitude
729.534 km
Semi-major axis
7,126.277 km
Eccentricity
0.00261
Inclination
98.6873°
RAAN
296.9253°
Arg. of periapsis
140.7219°
True anomaly
219.39683°
Mean anomaly
219.587°
Eccentric anomaly
219.49187°
Mean motion
3.60786 °/min
Orbital period
99.78 mins
BSTAR
0.00091272
Loading maneuver chart data...
Computing Atmospheric mass density...

Documentation

Showing up to 5 results
|